Le nostre stazioni meteo in Italia

Pubblicità
Il mio iltempo24.it
Roma/Ciampino, Italia (16239): Temperatura & dewpoint: 15.02.2020 03:00:00 - 21.02.2020 03:00:00 (CET)Roma/Ciampino, Italia (16239): velocità del vento: 15.02.2020 03:00:00 - 21.02.2020 03:00:00 (CET)Roma/Ciampino, Italia (16239): direzione del vento: 15.02.2020 03:00:00 - 21.02.2020 03:00:00 (CET)Roma/Ciampino, Italia (16239): reduced air pressure: 15.02.2020 03:00:00 - 21.02.2020 03:00:00 (CET)Roma/Ciampino, Italia (16239): visibility: 15.02.2020 03:00:00 - 21.02.2020 03:00:00 (CET)Roma/Ciampino, Italia (16239): precipitazioni: 15.02.2020 03:00:00 - 21.02.2020 03:00:00 (CET)
Data & Tempo tt [°C] td [°C] ff [km/h] ff [kn] dd ppp [hPa] vv [km] rr [mm]
21.02.2020 03:00:00 - - - - - - - -
21.02.2020 02:00:00 5,0 -1,0 2 1 - - 10 -
21.02.2020 01:00:00 6,6 -2,1 5 3 SSE 1024,0 10 -
21.02.2020 00:00:00 7,0 -2,0 5 3 S - 10 -
20.02.2020 23:00:00 7,0 -2,0 4 2 SSE - 10 -
20.02.2020 22:00:00 8,2 -1,4 2 1 - 1024,0 10 0,0
20.02.2020 21:00:00 - - - - - - - -
20.02.2020 20:00:00 10,0 -1,0 4 2 - - 10 -
20.02.2020 19:00:00 11,5 -2,0 2 1 - 1023,4 10 -
20.02.2020 18:00:00 14,0 1,0 5 3 NO - 10 -
20.02.2020 17:00:00 15,0 1,0 11 6 ONO - 10 -
20.02.2020 16:00:00 15,0 1,2 11 6 NO 1022,2 10 0,0
20.02.2020 15:00:00 - - - - - - - -
20.02.2020 14:00:00 15,0 -1,0 9 5 NNE - 10 -
20.02.2020 13:00:00 14,1 1,3 11 6 NNE 1022,5 10 -
20.02.2020 12:00:00 12,0 5,0 15 8 NNE - 10 -
20.02.2020 11:00:00 10,0 5,0 9 5 NE - 10 -
20.02.2020 10:00:00 8,1 4,9 15 8 ENE 1023,3 10 0,0
20.02.2020 09:00:00 7,0 5,0 16 9 NE - 10 -
20.02.2020 08:00:00 6,0 5,0 13 7 NE - 9 -
20.02.2020 07:00:00 5,5 4,8 9 5 ENE 1021,7 8 -
20.02.2020 06:00:00 6,0 5,0 9 5 ENE - 10 -
20.02.2020 05:00:00 - - - - - - - -
20.02.2020 04:00:00 5,5 4,9 9 5 ENE 1020,7 10 0,0
20.02.2020 03:00:00 - - - - - - - -
20.02.2020 02:00:00 7,0 6,0 8 4 E - 10 -
20.02.2020 01:00:00 6,5 6,0 8 4 ENE 1020,7 10 -
20.02.2020 00:00:00 6,0 6,0 4 2 - - 10 -
19.02.2020 23:00:00 8,0 7,0 2 1 - - 10 -
19.02.2020 22:00:00 8,5 7,9 4 2 - 1020,2 10 0,0
19.02.2020 21:00:00 9,0 8,0 4 2 E - 10 -
19.02.2020 20:00:00 9,0 8,0 4 2 - - 10 -
19.02.2020 19:00:00 9,5 8,7 5 3 NNO 1018,9 10 -
19.02.2020 18:00:00 11,0 9,0 8 4 NE - 10 -
19.02.2020 17:00:00 11,0 8,0 21 11 NNO - 8 -
19.02.2020 16:00:00 13,2 7,1 13 7 OSO 1018,0 10 0,0
19.02.2020 15:00:00 13,0 7,0 15 8 OSO - 10 -
19.02.2020 14:00:00 13,0 9,0 13 7 O - 10 -
19.02.2020 13:00:00 12,7 9,4 11 6 ONO 1020,5 10 -
19.02.2020 12:00:00 13,0 10,0 5 3 NO - 10 -
19.02.2020 11:00:00 12,0 10,0 5 3 ENE - 10 -
19.02.2020 10:00:00 10,7 10,1 8 4 E 1022,1 7 0,0
19.02.2020 09:00:00 10,0 9,0 11 6 E - 0,9 -
19.02.2020 08:00:00 9,0 9,0 8 4 ENE - 0,3 -
19.02.2020 07:00:00 9,1 8,6 4 2 - 1021,8 0,9 -
19.02.2020 06:00:00 9,0 9,0 4 2 NNO - 5 -
19.02.2020 05:00:00 9,0 8,0 4 2 ENE - 5 -
19.02.2020 04:00:00 8,5 7,8 2 1 E 1022,0 6 0,0
19.02.2020 03:00:00 7,0 6,0 2 1 - - 6 -
19.02.2020 02:00:00 8,0 7,0 4 2 ENE - 10 -
19.02.2020 01:00:00 9,2 7,2 4 2 SSE 1023,0 9 -
19.02.2020 00:00:00 10,0 8,0 4 2 - - 9 -
18.02.2020 23:00:00 11,0 9,0 4 2 SSE - 7 -
18.02.2020 22:00:00 11,0 9,0 2 1 - 1023,5 8 0,0
18.02.2020 21:00:00 10,0 9,0 2 1 - - 8 -
18.02.2020 20:00:00 11,0 10,0 8 4 SO - 8 -
18.02.2020 19:00:00 11,6 9,9 11 6 SSO 1023,0 10 -
18.02.2020 18:00:00 13,0 10,0 8 4 SO - 10 -
18.02.2020 17:00:00 14,0 10,0 11 6 S - 10 -
18.02.2020 16:00:00 14,5 10,0 11 6 SSO 1022,7 10 0,0
18.02.2020 15:00:00 14,0 10,0 13 7 SSO - 10 -
18.02.2020 14:00:00 14,0 10,0 11 6 OSO - 10 -
18.02.2020 13:00:00 14,5 8,8 9 5 SO 1023,8 10 -
18.02.2020 12:00:00 13,0 7,0 2 1 - - 10 -
18.02.2020 11:00:00 12,0 8,0 5 3 N - 10 -
18.02.2020 10:00:00 10,2 6,9 4 2 - 1025,5 10 0,0
18.02.2020 09:00:00 8,0 5,0 5 3 NE - 10 -
18.02.2020 08:00:00 6,0 4,0 9 5 NE - 10 -
18.02.2020 07:00:00 5,7 4,2 2 1 - 1024,7 10 -
18.02.2020 06:00:00 9,0 7,0 9 5 E - 10 -
18.02.2020 05:00:00 7,0 6,0 2 1 - - 10 -
18.02.2020 04:00:00 6,9 5,4 2 1 - 1025,2 10 0,0
18.02.2020 03:00:00 - - - - - - - -
18.02.2020 02:00:00 9,0 6,0 9 5 SSE - 10 -
18.02.2020 01:00:00 8,2 4,8 5 3 SE 1026,4 10 -
18.02.2020 00:00:00 9,0 4,0 8 4 SSE - 10 -
17.02.2020 23:00:00 8,0 4,0 4 2 - - 10 -
17.02.2020 22:00:00 8,9 4,1 5 3 SSE 1026,9 10 0,0
17.02.2020 21:00:00 10,0 8,0 9 5 SSE - 10 -
17.02.2020 20:00:00 10,0 7,0 5 3 S - 10 -
17.02.2020 19:00:00 10,6 6,9 8 4 SSO 1026,7 10 -
17.02.2020 18:00:00 12,0 7,0 9 5 SO - 10 -
17.02.2020 17:00:00 14,0 6,0 9 5 SO - 10 -
17.02.2020 16:00:00 14,8 5,1 13 7 OSO 1026,4 10 0,0
17.02.2020 15:00:00 16,0 7,0 13 7 OSO - 10 -
17.02.2020 14:00:00 16,0 2,0 5 3 NO - 10 -
17.02.2020 13:00:00 16,3 0,9 5 3 - 1028,0 10 -
17.02.2020 12:00:00 - - - - - - - -
17.02.2020 11:00:00 - - - - - - - -
17.02.2020 10:00:00 9,2 4,1 4 2 N 1029,3 15 0,0
17.02.2020 09:00:00 6,0 3,0 5 3 N - 10 -
17.02.2020 08:00:00 4,0 0,0 4 2 - - 10 -
17.02.2020 07:00:00 4,7 -0,3 2 1 ENE 1028,9 15 -
17.02.2020 06:00:00 5,0 0,0 4 2 - - 7 -
17.02.2020 05:00:00 5,0 1,0 4 2 - - 6 -
17.02.2020 04:00:00 6,0 0,2 2 1 N 1028,9 6 0,0
17.02.2020 03:00:00 6,0 1,0 2 1 - - 10 -
17.02.2020 02:00:00 7,0 2,0 4 2 SSE - 10 -
17.02.2020 01:00:00 8,1 2,3 4 2 SSE 1029,7 10 -
17.02.2020 00:00:00 8,0 3,0 5 3 SSE - 10 -
16.02.2020 23:00:00 8,0 4,0 5 3 SSE - 10 -
16.02.2020 22:00:00 10,2 7,3 8 4 SSE 1030,1 8 0,0
16.02.2020 21:00:00 10,0 8,0 5 3 SSO - 10 -
16.02.2020 20:00:00 11,0 8,0 9 5 S - 10 -
16.02.2020 19:00:00 11,8 7,8 8 4 SSO 1029,6 10 -
16.02.2020 18:00:00 13,0 7,0 11 6 O - 10 -
16.02.2020 17:00:00 16,0 8,0 11 6 O - 10 -
16.02.2020 16:00:00 17,3 2,4 5 3 NNO 1028,2 10 0,0
16.02.2020 15:00:00 17,0 2,0 8 4 N - 10 -
16.02.2020 14:00:00 17,0 5,0 5 3 - - 10 -
16.02.2020 13:00:00 15,8 5,4 5 3 - 1029,7 10 -
16.02.2020 12:00:00 14,0 7,0 5 3 NNE - 10 -
16.02.2020 11:00:00 12,0 6,0 8 4 NNE - 10 -
16.02.2020 10:00:00 10,2 5,3 5 3 NNE 1029,8 10 0,0
16.02.2020 09:00:00 7,0 4,0 4 2 - - 10 -
16.02.2020 08:00:00 5,0 2,0 4 2 ENE - 10 -
16.02.2020 07:00:00 4,9 2,6 5 3 E 1029,5 10 -
16.02.2020 06:00:00 5,0 3,0 4 2 ENE - 10 -
16.02.2020 05:00:00 4,0 2,0 8 4 NNE - 10 -
16.02.2020 04:00:00 5,0 1,9 4 2 N 1027,9 10 0,0
16.02.2020 03:00:00 6,0 1,0 2 1 - - 10 -
16.02.2020 02:00:00 8,0 2,0 4 2 S - 10 -
16.02.2020 01:00:00 6,7 2,1 0 0 N 1028,7 10 -
16.02.2020 00:00:00 8,0 4,0 4 2 SSE - 10 -
15.02.2020 23:00:00 9,0 4,0 2 1 - - 10 -
15.02.2020 22:00:00 9,8 3,9 5 3 SE 1027,7 10 0,0
15.02.2020 21:00:00 11,0 5,0 8 4 SSE - 10 -
15.02.2020 20:00:00 11,0 7,0 8 4 S - 10 -
15.02.2020 19:00:00 11,1 7,1 5 3 SO 1027,0 10 -
15.02.2020 18:00:00 13,0 7,0 8 4 SO - 10 -
15.02.2020 17:00:00 15,0 7,0 13 7 SO - 10 -
15.02.2020 16:00:00 15,6 7,2 15 8 SO 1025,8 10 0,0
15.02.2020 15:00:00 17,0 0,0 4 2 - - 10 -
15.02.2020 14:00:00 17,0 -1,0 4 2 - - 10 -
15.02.2020 13:00:00 17,2 1,6 8 4 NNO 1026,2 10 -
15.02.2020 12:00:00 15,0 3,0 9 5 NNE - 10 -
15.02.2020 11:00:00 12,0 2,0 8 4 NE - 10 -
15.02.2020 10:00:00 9,6 0,6 11 6 NE 1026,3 10 0,0
15.02.2020 09:00:00 7,0 -1,0 9 5 ENE - 10 -
15.02.2020 08:00:00 5,0 -1,0 4 2 - - 10 -
15.02.2020 07:00:00 5,8 -1,8 9 5 NE 1024,8 10 -
15.02.2020 06:00:00 6,0 -2,0 13 7 E - 10 -
15.02.2020 05:00:00 6,0 -2,0 5 3 ENE - 10 -
15.02.2020 04:00:00 6,2 -1,6 4 2 - 1023,6 10 0,0
15.02.2020 03:00:00 6,0 -2,0 4 2 - - 10 -

tt = Temperatura
td = dewpoint
ff = velocità del vento
dd = direzione del vento
ppp = reduced air pressure
vv = visibility
rr = precipitazioni

Stazioni seguenti

WeatherPro
AMSI
MeteoEarth